User: anonymous   Login
Location: Coleman
(45.0650°N, 88.0340°W)
Time: 22:02:10
(UTC-06:00)
Language:

Iridium 97 - Orbit

View from above orbital plane
View from above orbital plane
View from above satellite
View from above satellite

Ground track
Ground track

The orbit data is extracted from the following two-line orbital elements,

1 27450U 02031A   15057.17504797  .00000352  00000-0  11871-3 0  9993
2 27450 086.3973 310.8698 0002591 099.7340 260.4149 14.34217649669547
Epoch (UTC): 26 February 2015 04:12:04
Eccentricity: 0.0002591
inclination: 86.3973°
perigee height: 776 km
apogee height: 779 km
right ascension of ascending node: 310.8698°
argument of perigee: 99.7340°
revolutions per day: 14.34217649
mean anomaly at epoch: 260.4149°
orbit number at epoch: 66954

The dashed part of the orbit path shows where the satellite is in the earth's shadow,  

DLR